Home   Weather   Madrid   Past weeks

Flag for Spain Past Weather in Madrid, Spain — Yesterday and Last 2 Weeks

Now
73 °F

Sunny.


Feels Like: 77 °F
Forecast: 51 / 78 °F
Wind: 3 mph from North

Location: Madrid / Cuatro Vientos

Current Time: Sep 29, 2016 at 2:05:00 PM

Latest Report: Sep 29, 2016 at 1:30 PM


Visibility: 10 mi

Pressure: 30.36 "Hg (28.14 "Hg at 658m altitude)

Humidity: 41%

Dew Point: 48 °F

Location of MadridLocation

Past Weather in Madrid — Graph

°F

Madrid Temperature Yesterday

Maximum temperature yesterday: 77 °F (at 4:00 PM)
Minimum temperature yesterday: 59 °F (at 7:00 AM)
Average temperature yesterday: 71 °F

High & Low Weather Summary for the Past Weeks

 TemperatureHumidityPressure
High86 °F (Sep 27, 5:30 PM)77% (Sep 16, 7:00 AM)30.42 "Hg (Sep 16, 7:00 AM)
Low46 °F (Sep 15, 7:00 AM)14% (Sep 21, 7:00 PM)29.95 "Hg (Sep 20, 5:00 PM)
Average70 °F39%30.16 "Hg
* Reported Sep 14 1:00 PM — Sep 29 1:00 PM, Madrid, Weather by CustomWeather, © 2016

Note: Actual official high and low records may vary slightly from our data, if they occured in-between our weather recording intervals... More about our weather records

Advertising

Madrid Weather History for the Previous 24 Hours

Scroll right to see more
 ConditionsComfort  
Time TempWeatherWind HumidityBarometerVisibility
1:00 PM
Thu, Sep 29
72 °FSunny.3 mph47%30.36 "Hg10 mi
12:30 PM70 °FPassing clouds.5 mph50%30.39 "HgN/A
12:00 PM70 °FPassing clouds.5 mph46%30.39 "HgN/A
11:30 AM68 °FPassing clouds.3 mph46%30.39 "HgN/A
11:00 AM66 °FPassing clouds.2 mph49%30.39 "HgN/A
10:30 AM64 °FScattered clouds.No wind52%30.39 "HgN/A
10:00 AM63 °FSunny.1 mph56%30.39 "Hg10 mi
9:30 AM66 °FSunny.No wind52%30.39 "Hg10 mi
9:00 AM59 °FSunny.No wind63%30.39 "Hg10 mi
8:30 AM55 °FSunny.No wind72%30.39 "Hg10 mi
8:00 AM55 °FClear.1 mph72%30.39 "Hg10 mi
7:30 AM57 °FClear.2 mph67%30.39 "Hg10 mi
7:00 AM57 °FClear.2 mph67%30.39 "Hg10 mi
10:00 PM
Wed, Sep 28
70 °FPassing clouds.5 mph40%30.39 "HgN/A
9:30 PM72 °FPassing clouds.5 mph36%30.36 "HgN/A
9:00 PM72 °FClear.2 mph36%30.36 "Hg10 mi
8:30 PM72 °FPassing clouds.3 mph36%30.36 "HgN/A
8:00 PM73 °FPassing clouds.3 mph36%30.36 "HgN/A
7:30 PM75 °FPassing clouds.5 mph34%30.36 "HgN/A
7:00 PM77 °FPassing clouds.3 mph32%30.33 "HgN/A
6:30 PM77 °FScattered clouds.6 mph32%30.36 "HgN/A
6:00 PM77 °FScattered clouds.6 mph32%30.33 "HgN/A
5:30 PM75 °FScattered clouds.5 mph34%30.36 "HgN/A
5:00 PM77 °FScattered clouds.5 mph32%30.36 "HgN/A
4:30 PM77 °FScattered clouds.7 mph34%30.36 "HgN/A
4:00 PM77 °FPartly sunny.5 mph34%30.36 "HgN/A
3:30 PM73 °FPartly sunny.6 mph41%30.36 "HgN/A
3:00 PM75 °FPartly sunny.6 mph39%30.36 "HgN/A
2:30 PM73 °FPartly sunny.6 mph41%30.39 "HgN/A
2:00 PM75 °FPartly sunny.8 mph39%30.39 "HgN/A
Weather by CustomWeather, © 2016

See weather overviewHow to use our weather pages